This is the latest recevied weather packets stored in our database for station/object DM1MT. If no packets are shown the sender has not sent any weather packets the latest 10 day(s).
| Time | Temp. | Humidity | Pressure | Rain* | Wind** | Luminosity | Snow |
|---|---|---|---|---|---|---|---|
| 1777899486 | 22.22° C | 49% | 1004.5 hPa | 0 mm | - | 164 W/m² | - |
| 1777897071 | 22.78° C | 46% | 1004.5 hPa | 0 mm | - | 224 W/m² | - |
| 1777890389 | 21.11° C | 48% | 1005.5 hPa | 0 mm | - | 285 W/m² | - |
| 1777887985 | 20.56° C | 49% | 1005.7 hPa | 0 mm | - | 272 W/m² | - |
| 1777886808 | 20° C | 49% | 1005.7 hPa | 0 mm | - | 284 W/m² | - |
| 1777886170 | 20° C | 48% | 1005.9 hPa | 0 mm | - | 254 W/m² | - |
| 1777870612 | 11.11° C | 74% | 1005.2 hPa | 0 mm | - | 35 W/m² | - |
| 1777863364 | 11.67° C | 74% | 1005.2 hPa | 0 mm | - | 0 W/m² | - |
| 1777862784 | 12.22° C | 74% | 1005.3 hPa | 0 mm | - | 0 W/m² | - |
| 1777862244 | 12.22° C | 73% | 1005.2 hPa | 0 mm | - | 0 W/m² | - |
| 1777860972 | 13.33° C | 71% | 1005.3 hPa | 0 mm | - | 0 W/m² | - |
| 1777855031 | 15° C | 63% | 1005.3 hPa | 0 mm | - | 0 W/m² | - |
| 1777853806 | 15° C | 63% | 1005.5 hPa | 0 mm | - | 0 W/m² | - |
| 1777843595 | 17.78° C | 51% | 1005.1 hPa | 0 mm | - | 0 W/m² | - |
| 1777839407 | 19.44° C | 46% | 1005.3 hPa | 0 mm | - | 0 W/m² | - |
| 1777833383 | 20.56° C | 41% | 1003.6 hPa | 0 mm | - | 1 W/m² | - |
| 1777832808 | 21.11° C | 41% | 1003.6 hPa | 0 mm | - | 5 W/m² | - |
| 1777832251 | 21.11° C | 40% | 1003.5 hPa | 0 mm | - | 11 W/m² | - |
| 1777831664 | 21.11° C | 40% | 1003.5 hPa | 0 mm | - | 16 W/m² | - |
| 1777828563 | 22.78° C | 37% | 1003.4 hPa | 0 mm | - | 32 W/m² | - |
| 1777828063 | 22.78° C | 37% | 1003.4 hPa | 0 mm | - | 41 W/m² | - |
| 1777827362 | 22.78° C | 37% | 1003.4 hPa | 0 mm | - | 54 W/m² | - |
| 1777821390 | 24.44° C | 36% | 1003.8 hPa | 0 mm | - | 145 W/m² | - |
| 1777817223 | 23.33° C | 39% | 1004.2 hPa | 0 mm | - | 177 W/m² | - |
| 1777816006 | 23.33° C | 39% | 1004.4 hPa | 0 mm | - | 136 W/m² | - |
* Rain latest hour (hover to see other rain measurements)
** Current wind speed in m/s (hover to see current wind gust speed)